This demonstration page uses our WeatherBlox Daily Observations layout. Learn more.

Left ArrowRight Arrow

40.97296, -117.73568

Hourly Observations for August 30, 2020

Temp ( °F °C ) Dew Point ( °F °C ) Humidity (%) Winds ( mph kmh ) Pressure ( in mb ) Visibility ( mi km ) Precip ( " mm )
12:56 am 00:56 Clear 63 17.2 27 -2.8 26 26 NNW 5 7 29.80 1009 8 13 0.00 0.00
1:56 am 01:56 Clear 57 13.9 29 -1.7 34 34 S 6 9 29.81 1010 8 13 0.00 0.00
2:56 am 02:56 Clear 59 15 28 -2.2 31 31 ENE 5 7 29.83 1010 7 11 0.00 0.00
3:56 am 03:56 Clear 63 17.2 25 -3.9 24 24 NW 10 17 29.82 1010 9 14 0.00 0.00
4:56 am 04:56 Clear 63 17.2 22 -5.6 21 21 NW 10 17 29.83 1010 10 16 0.00 0.00
5:56 am 05:56 Clear 63 17.2 22 -5.6 21 21 NW 10 17 29.85 1011 10 16 0.00 0.00
6:56 am 06:56 Sunny 61 16.1 22 -5.6 22 22 W 10 17 29.87 1012 10 16 0.00 0.00
7:56 am 07:56 Sunny 67 19.4 25 -3.9 20 20 W 8 13 29.90 1013 10 16 0.00 0.00
8:56 am 08:56 Sunny 72 22.2 22 -5.6 15 15 WNW 13 20 29.91 1013 10 16 0.00 0.00
9:56 am 09:56 Sunny 77 25 20 -6.7 12 12 NW 13 20 29.91 1013 10 16 0.00 0.00
10:56 am 10:56 Sunny 79 26.1 21 -6.1 11 11 N 13 20 29.93 1013 10 16 0.00 0.00
11:56 am 11:56 Sunny 81 27.2 21 -6.1 11 11 undefined N/A 29.91 1013 10 16 0.00 0.00
12:56 pm 12:56 Sunny 84 28.9 20 -6.7 9 9 W 8 13 29.88 1012 10 16 0.00 0.00
1:56 pm 13:56 Sunny 86 30 20 -6.7 9 9 NW 14 22 29.87 1012 10 16 0.00 0.00
2:56 pm 14:56 Sunny 87 30.6 22 -5.6 9 9 NNW 9 15 29.85 1011 10 16 0.00 0.00
3:56 pm 15:56 Sunny 86 30 23 -5 10 10 WNW 12 19 29.83 1010 10 16 0.00 0.00
4:56 pm 16:56 Mostly Sunny 87 30.6 23 -5 9 9 NNW 13 20 29.82 1010 10 16 0.00 0.00
5:56 pm 17:56 Partly Cloudy 85 29.4 20 -6.7 9 9 NW 12 19 29.81 1010 10 16 0.00 0.00
6:56 pm 18:56 Sunny 81 27.2 21 -6.1 11 11 N 10 17 29.83 1010 10 16 0.00 0.00
7:56 pm 19:56 Clear 73 22.8 19 -7.2 13 13 N 7 11 29.84 1011 10 16 0.00 0.00
8:56 pm 20:56 Clear 67 19.4 17 -8.3 15 15 NW 8 13 29.86 1011 10 16 0.00 0.00
9:56 pm 21:56 Clear 69 20.6 14 -10 12 12 N 9 15 29.87 1012 10 16 0.00 0.00
10:56 pm 22:56 Clear 63 17.2 10 -12.2 12 12 N 5 7 29.88 1012 10 16 0.00 0.00
11:56 pm 23:56 Clear 53 11.7 9 -12.8 17 17 NW 7 11 29.90 1013 10 16 0.00 0.00

Powered by AerisWeather